KN6KDD Weather Reports


time (UTC)temp
C
wind
direction
speed
KPH
gust
KPH
rain 1hr
cm
rain 24hr
cm
rain mn
cm
humidity
%
barometer
mb
20260506133509 11 321 3.2 3.2 0.00 0.00 0.00 98 1360.6
20260506133006 11 331 3.2 3.2 0.00 0.00 0.00 97 1360.5
20260506132503 11 266 3.2 3.2 0.00 0.00 0.00 98 1360.5
20260506132000 11 300 3.2 4.8 0.00 0.00 0.00 97 1360.3
20260506131457 11 282 3.2 3.2 0.00 0.00 0.00 97 1360.3
20260506130954 11 278 1.6 3.2 0.00 0.00 0.00 97 1360.5
20260506130450 11 285 1.6 4.8 0.00 0.00 0.00 97 1360.4
20260506125948 11 294 1.6 4.8 0.00 0.00 0.00 97 1360.5
20260506125446 11 303 3.2 3.2 0.00 0.00 0.00 97 1360.4
20260506124944 11 313 1.6 3.2 0.00 0.00 0.00 97 1360.3
20260506124441 11 297 0.0 1.6 0.00 0.00 0.00 97 1360.3
20260506123939 11 323 0.0 3.2 0.00 0.00 0.00 97 1360.3
20260506123438 11 292 1.6 3.2 0.00 0.00 0.00 97 1359.9
20260506122934 11 280 3.2 3.2 0.00 0.00 0.00 97 1360.1
20260506122431 11 263 3.2 3.2 0.00 0.00 0.00 97 1360.1
20260506121930 11 287 3.2 4.8 0.00 0.00 0.00 97 1360.3
20260506121426 11 267 4.8 4.8 0.00 0.00 0.00 97 1360.0
20260506120923 11 287 3.2 4.8 0.00 0.00 0.00 96 1360.0
20260506120420 11 277 1.6 3.2 0.00 0.00 0.00 96 1359.7
20260506115917 11 272 3.2 3.2 0.00 0.00 0.00 96 1360.0
20260506115415 11 271 0.0 3.2 0.00 0.00 0.00 97 1359.9
20260506114914 11 312 1.6 3.2 0.00 0.00 0.00 96 1360.1
20260506114411 11 345 3.2 3.2 0.00 0.00 0.00 96 1360.0
20260506113910 11 267 3.2 3.2 0.00 0.00 0.00 96 1359.9
20260506113407 11 267 1.6 3.2 0.00 0.00 0.00 96 1360.0
20260506112903 11 291 1.6 3.2 0.00 0.00 0.00 96 1360.0
20260506112401 11 342 1.6 3.2 0.00 0.00 0.00 96 1359.7
20260506111858 11 291 1.6 3.2 0.00 0.00 0.00 96 1359.9
20260506111356 11 232 0.0 8.0 0.00 0.00 0.00 96 1359.7
20260506110853 11 265 3.2 3.2 0.00 0.00 0.00 96 1359.6
20260506110350 11 281 1.6 3.2 0.00 0.00 0.00 95 1359.6
20260506105847 11 272 3.2 4.8 0.00 0.00 0.00 95 1359.7
20260506105343 11 241 0.0 3.2 0.00 0.00 0.00 96 1359.6
20260506104841 11 261 1.6 4.8 0.00 0.00 0.00 96 1359.5
20260506104338 11 281 3.2 3.2 0.00 0.00 0.00 95 1359.6
20260506103836 11 269 4.8 4.8 0.00 0.00 0.00 95 1359.5
20260506103333 11 284 4.8 8.0 0.00 0.00 0.00 95 1359.3
20260506102831 11 321 3.2 3.2 0.00 0.00 0.00 95 1359.3
20260506102328 11 272 3.2 4.8 0.00 0.00 0.00 95 1359.5
20260506101825 11 279 1.6 4.8 0.00 0.00 0.00 95 1359.1
20260506101321 11 308 3.2 3.2 0.00 0.00 0.00 96 1359.1
20260506100820 11 335 3.2 4.8 0.00 0.00 0.00 96 1359.1
20260506100318 11 319 3.2 3.2 0.00 0.00 0.00 96 1358.8
20260506095816 11 279 0.0 3.2 0.00 0.00 0.00 96 1359.0
20260506095312 11 316 1.6 4.8 0.00 0.00 0.00 96 1359.0
20260506094809 11 309 0.0 1.6 0.00 0.00 0.00 95 1359.1
20260506094308 11 285 0.0 3.2 0.00 0.00 0.00 95 1359.1
20260506093806 11 277 1.6 3.2 0.00 0.00 0.00 95 1359.0
20260506093302 11 234 1.6 3.2 0.00 0.00 0.00 94 1359.0
20260506092801 11 223 0.0 4.8 0.00 0.00 0.00 95 1358.8
20260506092258 11 267 3.2 3.2 0.00 0.00 0.00 95 1358.8
20260506091755 11 265 1.6 4.8 0.00 0.00 0.00 95 1359.0
20260506091252 11 256 3.2 6.4 0.00 0.00 0.00 95 1359.1
20260506090750 11 268 3.2 4.8 0.00 0.00 0.00 95 1359.0
20260506090247 11 254 3.2 6.4 0.00 0.00 0.00 95 1358.8
20260506085744 11 236 3.2 6.4 0.00 0.00 0.00 95 1359.1
20260506085240 11 251 3.2 6.4 0.00 0.00 0.00 95 1359.2
20260506084736 11 267 4.8 6.4 0.00 0.00 0.00 95 1359.2
20260506084233 11 247 3.2 6.4 0.00 0.00 0.00 95 1359.1
20260506083730 11 256 6.4 6.4 0.00 0.00 0.00 95 1359.2
20260506083228 11 245 6.4 6.4 0.00 0.00 0.00 95 1359.3
20260506082725 11 262 3.2 3.2 0.00 0.00 0.00 95 1359.0
20260506082220 11 254 3.2 3.2 0.00 0.00 0.00 94 1359.2
20260506081718 11 254 1.6 3.2 0.00 0.00 0.00 94 1359.2
20260506081216 11 249 3.2 4.8 0.00 0.00 0.00 94 1359.0
20260506080714 11 244 3.2 4.8 0.00 0.00 0.00 94 1359.2
20260506080210 11 267 3.2 4.8 0.00 0.00 0.00 95 1359.1
20260506073154 11 306 0.0 4.8 0.00 0.00 0.00 94 1359.0
20260506072650 11 276 1.6 3.2 0.00 0.00 0.00 94 1358.7
20260506072148 11 292 3.2 3.2 0.00 0.00 0.00 94 1358.6
20260506071646 11 235 0.0 6.4 0.00 0.00 0.00 94 1358.7
20260506071143 11 255 1.6 3.2 0.00 0.00 0.00 94 1358.7
20260506070640 11 250 0.0 3.2 0.00 0.00 0.00 94 1358.7
20260506070137 11 299 3.2 4.8 0.00 0.00 0.00 94 1358.6
20260506062114 11 308 3.2 6.4 0.00 0.18 0.18 94 1358.2
20260506061610 11 347 4.8 6.4 0.00 0.18 0.18 94 1358.3
20260506061108 11 333 4.8 4.8 0.00 0.18 0.18 94 1358.2
20260506060606 11 338 3.2 4.8 0.00 0.18 0.18 93 1358.2
20260506051035 11 255 3.2 4.8 0.00 0.18 0.18 92 1357.8
20260506050533 11 251 3.2 3.2 0.00 0.18 0.18 91 1357.5
20260506045023 11 245 4.8 6.4 0.00 0.18 0.18 90 1357.7
20260506044521 12 250 3.2 6.4 0.00 0.18 0.18 90 1357.4
20260506044018 12 250 3.2 4.8 0.00 0.18 0.18 90 1357.4
20260506043515 12 267 3.2 3.2 0.00 0.18 0.18 90 1357.3
20260506043013 11 180 0.0 6.4 0.00 0.18 0.18 89 1357.4
20260506042512 12 230 0.0 3.2 0.00 0.18 0.18 89 1357.4
20260506042010 12 135 3.2 6.4 0.00 0.18 0.18 88 1357.1
20260506041508 12 282 1.6 6.4 0.00 0.18 0.18 89 1357.0
20260506041004 12 322 1.6 3.2 0.00 0.18 0.18 89 1356.8
20260506040502 12 31 4.8 4.8 0.00 0.18 0.18 88 1356.9
20260506035958 12 17 3.2 6.4 0.00 0.18 0.18 89 1356.8
20260506035455 12 316 0.0 4.8 0.00 0.18 0.18 88 1356.8
20260506034951 12 305 1.6 4.8 0.00 0.18 0.18 88 1356.9
20260506034449 12 348 3.2 8.0 0.00 0.18 0.18 88 1356.4
20260506033946 12 347 4.8 6.4 0.00 0.18 0.18 88 1356.5
20260506033444 12 349 3.2 4.8 0.00 0.18 0.18 88 1356.1
20260506032940 12 0 4.8 4.8 0.00 0.18 0.18 87 1356.2
20260506032437 12 5 4.8 4.8 0.00 0.18 0.18 88 1356.4
20260506031933 12 296 1.6 9.7 0.00 0.18 0.18 87 1356.0
20260506031431 12 1 1.6 4.8 0.00 0.18 0.18 87 1356.1
20260506030929 12 271 0.0 3.2 0.00 0.18 0.18 87 1356.0
20260506030427 12 167 3.2 3.2 0.00 0.18 0.18 87 1355.8
20260506025923 12 289 1.6 3.2 0.00 0.18 0.18 86 1355.8
20260506025420 12 263 1.6 3.2 0.00 0.18 0.18 86 1355.6
20260506024917 13 250 0.0 3.2 0.00 0.18 0.18 86 1355.6
20260506024414 13 186 0.0 3.2 0.00 0.18 0.18 85 1355.5
20260506023909 13 54 1.6 4.8 0.00 0.18 0.18 84 1355.3
20260506023407 13 156 3.2 4.8 0.00 0.18 0.18 84 1355.3
20260506022903 13 347 3.2 4.8 0.00 0.18 0.18 83 1355.6
20260506022401 13 28 3.2 3.2 0.00 0.18 0.18 84 1355.5
20260506021859 13 49 1.6 4.8 0.00 0.18 0.18 84 1355.3
20260506021355 13 131 4.8 4.8 0.00 0.18 0.18 84 1355.3
20260506020852 14 22 1.6 4.8 0.00 0.18 0.18 83 1355.1
20260506020350 14 359 3.2 4.8 0.00 0.18 0.18 84 1355.5
20260506015847 14 276 0.0 3.2 0.00 0.18 0.18 84 1355.2
20260506015345 14 26 3.2 8.0 0.00 0.18 0.18 82 1355.1
20260506014842 15 290 0.0 4.8 0.00 0.18 0.18 81 1355.1
20260506014338 15 327 6.4 6.4 0.00 0.18 0.18 81 1354.8
20260506013835 15 323 3.2 4.8 0.00 0.18 0.18 81 1354.9
20260506013333 15 161 0.0 3.2 0.00 0.18 0.18 81 1355.1
20260506012829 15 8 4.8 8.0 0.00 0.18 0.18 80 1354.9
20260506012326 15 31 3.2 4.8 0.00 0.18 0.18 81 1354.9
20260506011823 15 327 3.2 4.8 0.00 0.18 0.18 79 1354.7
20260506011320 15 317 6.4 11.3 0.00 0.18 0.18 80 1354.9
20260506010817 15 341 4.8 6.4 0.00 0.18 0.18 80 1354.5
20260506010315 15 299 4.8 14.5 0.00 0.18 0.18 79 1354.9
20260506005812 15 337 0.0 4.8 0.00 0.18 0.18 81 1354.7
20260506005309 15 282 3.2 4.8 0.00 0.18 0.18 81 1354.9
20260506004805 15 317 8.0 8.0 0.00 0.18 0.18 81 1354.9
20260506004302 15 340 3.2 6.4 0.00 0.18 0.18 80 1354.9
20260506003758 15 330 3.2 6.4 0.00 0.18 0.18 81 1354.8
20260506003255 15 30 1.6 4.8 0.00 0.18 0.18 81 1354.9
20260506002751 15 271 9.7 12.9 0.00 0.18 0.18 79 1354.7
20260506002247 15 263 4.8 12.9 0.00 0.18 0.18 80 1354.7
20260506001743 15 353 3.2 6.4 0.00 0.18 0.18 80 1354.5
20260506001241 16 316 4.8 6.4 0.00 0.18 0.18 81 1354.4
20260506000738 16 255 0.0 4.8 0.00 0.18 0.18 82 1354.4
20260506000235 16 153 1.6 9.7 0.00 0.18 0.18 81 1354.4
20260505235732 16 139 3.2 6.4 0.00 0.18 0.18 81 1354.2
20260505235230 16 230 3.2 6.4 0.00 0.18 0.18 81 1354.7
20260505234726 15 260 0.0 9.7 0.00 0.18 0.18 80 1354.4
20260505234224 16 353 3.2 6.4 0.00 0.18 0.18 81 1354.4
20260505233720 16 338 6.4 14.5 0.00 0.18 0.18 81 1354.4
20260505233218 16 40 4.8 6.4 0.00 0.18 0.18 81 1354.4
20260505232715 16 191 3.2 4.8 0.00 0.18 0.18 81 1354.7
20260505232213 16 2 1.6 3.2 0.00 0.18 0.18 80 1354.7
20260505231709 15 291 8.0 11.3 0.00 0.18 0.18 78 1354.8
20260505231208 15 333 3.2 6.4 0.00 0.18 0.18 78 1354.5
20260505230706 16 308 8.0 9.7 0.00 0.18 0.18 79 1354.8
20260505230202 16 322 6.4 6.4 0.00 0.18 0.18 81 1354.9
20260505225659 16 291 3.2 6.4 0.00 0.18 0.18 79 1354.8
20260505225155 16 292 3.2 6.4 0.00 0.18 0.18 81 1354.8
20260505224651 16 314 9.7 9.7 0.00 0.18 0.18 79 1354.7
20260505224149 16 311 9.7 12.9 0.00 0.18 0.18 78 1354.5
20260505223646 16 318 4.8 8.0 0.00 0.18 0.18 79 1354.9
20260505223142 16 320 4.8 8.0 0.00 0.18 0.18 78 1354.7
20260505222638 16 335 8.0 9.7 0.00 0.18 0.18 76 1354.9
20260505222135 16 301 6.4 8.0 0.00 0.18 0.18 77 1354.8
20260505221632 16 287 6.4 8.0 0.00 0.18 0.18 75 1354.8
20260505221128 16 310 4.8 16.1 0.00 0.18 0.18 77 1355.1
20260505220626 16 13 4.8 12.9 0.00 0.18 0.18 79 1354.9
20260505220123 16 297 6.4 8.0 0.00 0.18 0.18 79 1355.2
20260505215621 15 275 9.7 9.7 0.00 0.18 0.18 81 1355.2
20260505215119 15 241 3.2 6.4 0.00 0.18 0.18 81 1355.1
20260505214617 15 292 3.2 11.3 0.00 0.18 0.18 81 1355.2
20260505214114 15 297 9.7 9.7 0.00 0.18 0.18 81 1355.2
20260505213611 15 287 4.8 8.0 0.00 0.18 0.18 83 1355.2
20260505213108 15 245 9.7 9.7 0.00 0.18 0.18 79 1355.5
20260505212604 15 336 3.2 6.4 0.00 0.18 0.18 81 1355.5
20260505212102 15 341 3.2 9.7 0.00 0.18 0.18 81 1355.6
20260505211558 15 45 3.2 4.8 0.00 0.18 0.18 80 1355.2
20260505211055 15 286 3.2 3.2 0.00 0.18 0.18 80 1355.3
20260505210551 15 344 8.0 8.0 0.00 0.18 0.18 81 1355.3
20260505210049 15 334 3.2 6.4 0.00 0.18 0.18 80 1355.5
20260505205547 15 287 8.0 9.7 0.00 0.18 0.18 81 1355.3
20260505205044 15 5 3.2 8.0 0.00 0.18 0.18 79 1355.6
20260505204541 15 310 0.0 4.8 0.00 0.18 0.18 83 1355.5
20260505204039 14 278 3.2 8.0 0.00 0.18 0.18 83 1355.6
20260505203535 14 342 3.2 8.0 0.00 0.18 0.18 85 1355.3
20260505203032 14 300 4.8 9.7 0.00 0.18 0.18 85 1355.5
20260505202528 14 331 3.2 9.7 0.00 0.18 0.18 85 1355.6
20260505202024 14 303 6.4 9.7 0.00 0.18 0.18 85 1355.6
20260505201522 14 302 9.7 9.7 0.00 0.18 0.18 84 1355.5
20260505201019 14 294 3.2 6.4 0.00 0.18 0.18 85 1355.6
20260505200517 14 311 8.0 9.7 0.00 0.18 0.18 84 1355.6
20260505200013 15 320 4.8 6.4 0.00 0.18 0.18 85 1355.6
20260505195509 15 328 6.4 9.7 0.00 0.18 0.18 86 1355.6
20260505195007 14 290 9.7 9.7 0.00 0.18 0.18 84 1355.5
20260505194504 14 292 6.4 6.4 0.00 0.18 0.18 84 1355.5
20260505194004 14 293 3.2 8.0 0.00 0.18 0.18 85 1355.3
20260505193502 14 2 3.2 8.0 0.00 0.18 0.18 84 1355.6
20260505192959 14 303 3.2 4.8 0.00 0.18 0.18 86 1355.3
20260505192458 13 3 1.6 6.4 0.00 0.18 0.18 86 1355.3
20260505191954 13 314 4.8 8.0 0.00 0.18 0.18 86 1355.5
20260505191453 14 305 4.8 11.3 0.00 0.18 0.18 84 1355.5
20260505190950 14 258 6.4 6.4 0.00 0.18 0.18 84 1355.5
20260505190445 14 307 4.8 11.3 0.00 0.18 0.18 83 1355.3
20260505185941 14 316 6.4 6.4 0.00 0.18 0.18 85 1355.2
20260505185438 14 8 6.4 8.0 0.00 0.18 0.18 86 1355.5
20260505184934 14 301 3.2 4.8 0.00 0.18 0.18 82 1355.2
20260505184431 14 37 3.2 4.8 0.00 0.18 0.18 84 1355.5
20260505183928 14 353 4.8 6.4 0.00 0.18 0.18 83 1355.5
20260505183425 13 5 3.2 4.8 0.00 0.18 0.18 85 1355.3
20260505182921 13 25 0.0 3.2 0.00 0.18 0.18 84 1355.2
20260505182418 13 286 6.4 6.4 0.00 0.18 0.18 84 1355.3
20260505181915 13 313 3.2 8.0 0.00 0.18 0.18 86 1355.2
20260505181412 13 306 6.4 8.0 0.00 0.18 0.18 84 1355.3
20260505180909 13 348 4.8 6.4 0.00 0.18 0.18 86 1354.9
20260505180405 13 5 3.2 6.4 0.00 0.18 0.18 86 1355.1
20260505175902 13 17 3.2 6.4 0.00 0.18 0.18 88 1354.9
20260505175358 13 335 4.8 6.4 0.00 0.18 0.18 89 1354.8
20260505174855 13 342 4.8 6.4 0.00 0.18 0.18 89 1354.9
20260505174352 12 303 4.8 8.0 0.00 0.18 0.18 89 1354.9
20260505173848 12 2 3.2 4.8 0.00 0.18 0.18 90 1354.9
20260505173345 12 316 4.8 8.0 0.00 0.18 0.18 89 1354.9
20260505172842 12 326 4.8 4.8 0.00 0.18 0.18 91 1354.7
20260505172340 12 282 3.2 8.0 0.00 0.18 0.18 90 1354.7
20260505171839 11 229 3.2 8.0 0.00 0.18 0.18 91 1354.5
20260505171336 12 274 3.2 8.0 0.00 0.18 0.18 91 1354.5
20260505170833 11 302 6.4 9.7 0.00 0.18 0.18 92 1354.7
20260505170330 11 295 9.7 9.7 0.00 0.18 0.18 92 1354.8
20260505165825 11 269 4.8 6.4 0.00 0.18 0.18 91 1354.8
20260505165320 12 334 4.8 6.4 0.00 0.18 0.18 91 1354.7
20260505164816 12 323 1.6 3.2 0.00 0.18 0.18 93 1354.7
20260505164314 12 316 1.6 3.2 0.00 0.18 0.18 93 1354.5
20260505163812 11 309 3.2 8.0 0.00 0.18 0.18 92 1354.5
20260505163310 11 267 4.8 6.4 0.00 0.18 0.18 90 1354.5
20260505162808 11 301 4.8 8.0 0.00 0.18 0.18 90 1354.4
20260505162306 11 332 1.6 6.4 0.00 0.18 0.18 93 1354.4
20260505161801 11 356 1.6 6.4 0.00 0.18 0.18 93 1354.4
20260505161258 11 261 4.8 8.0 0.00 0.18 0.18 92 1354.2
20260505160756 11 275 3.2 6.4 0.00 0.18 0.18 92 1354.2
20260505160253 11 301 4.8 8.0 0.00 0.18 0.18 92 1354.2
20260505153232 11 251 1.6 9.7 0.00 0.18 0.18 94 1353.9
20260505152729 10 298 6.4 6.4 0.00 0.18 0.18 95 1353.9
20260505152226 10 269 4.8 4.8 0.00 0.18 0.18 95 1353.9
20260505151720 10 227 1.6 4.8 0.00 0.18 0.18 96 1354.2
20260505151218 10 210 0.0 3.2 0.00 0.18 0.18 96 1353.9
20260505150714 10 292 4.8 6.4 0.00 0.18 0.18 96 1353.6
20260505150212 10 299 1.6 3.2 0.00 0.18 0.18 97 1353.8
20260505140645 10 267 1.6 4.8 0.00 0.18 0.18 99 1353.1
20260505140142 10 283 3.2 3.2 0.00 0.18 0.18 99 1353.3